• en France
  • Liste des pays
  • À 7 jours
  • Température de l'eau
  • Carte satellitaire
  • Carte météo
  • Widgets météo
  • user-avatar
    Se connecter

    Météo par heure à Pointe-Noire

    Ce jour, 14 Décembre, Jeudi

    Heure Température Précipitation Vent Pression Humidité
    00:00 +24°C° 0 mm 1 m/s 721 mmHg 77%
    01:00 +24°C° 0 mm 1 m/s 721 mmHg 84%
    02:00 +24°C° 0 mm 1 m/s 721 mmHg 86%
    03:00 +24°C° 0 mm 1 m/s 721 mmHg 89%
    04:00 +24°C° 0 mm 1 m/s 721 mmHg 92%
    05:00 +24°C° 0 mm 1 m/s 721 mmHg 91%
    06:00 +25°C° 0 mm 1 m/s 721 mmHg 90%
    07:00 +25°C° 0 mm 1 m/s 721 mmHg 89%
    08:00 +27°C° 0 mm 1 m/s 721 mmHg 78%
    09:00 +29°C° 0 mm 1 m/s 721 mmHg 67%
    10:00 +31°C° 0 mm 1 m/s 721 mmHg 55%
    11:00 +33°C° 0 mm 1 m/s 721 mmHg 47%
    12:00 +35°C° 0 mm 1 m/s 721 mmHg 39%
    13:00 +36°C° 0 mm 1 m/s 721 mmHg 36%
    14:00 +36°C° 0 mm 1 m/s 720 mmHg 34%
    15:00 +35°C° 0 mm 1 m/s 720 mmHg 33%
    16:00 +35°C° 0 mm 1 m/s 719 mmHg 32%
    17:00 +32°C° 0 mm 1 m/s 719 mmHg 39%
    18:00 +30°C° 0 mm 1 m/s 719 mmHg 45%
    19:00 +28°C° 0 mm 1 m/s 719 mmHg 52%
    20:00 +27°C° 0 mm 1 m/s 720 mmHg 57%
    21:00 +26°C° 0 mm 1 m/s 720 mmHg 63%
    22:00 +26°C° 0 mm 1 m/s 720 mmHg 68%
    23:00 +25°C° 0 mm 1 m/s 720 mmHg 75%

    Demain, 15 Décembre, Vendredi

    Heure Température Précipitation Vent Pression Humidité
    00:00 +25°C° 0 mm 2 m/s 720 mmHg 82%
    01:00 +25°C° 0 mm 2 m/s 720 mmHg 89%
    02:00 +25°C° 0 mm 2 m/s 720 mmHg 89%
    03:00 +25°C° 0 mm 1 m/s 720 mmHg 89%
    04:00 +25°C° 0 mm 1 m/s 720 mmHg 89%
    05:00 +25°C° 0 mm 1 m/s 720 mmHg 90%
    06:00 +25°C° 0 mm 1 m/s 721 mmHg 90%
    07:00 +25°C° 0 mm 1 m/s 721 mmHg 91%
    08:00 +27°C° 0 mm 1 m/s 721 mmHg 80%
    09:00 +29°C° 0 mm 1 m/s 721 mmHg 70%
    10:00 +31°C° 0 mm 1 m/s 722 mmHg 60%
    11:00 +33°C° 0 mm 1 m/s 721 mmHg 52%
    12:00 +35°C° 0 mm 1 m/s 720 mmHg 44%
    13:00 +37°C° 0 mm 1 m/s 720 mmHg 36%
    14:00 +36°C° 0 mm 1 m/s 719 mmHg 36%
    15:00 +36°C° 0 mm 1 m/s 719 mmHg 35%
    16:00 +35°C° 0 mm 1 m/s 718 mmHg 35%
    17:00 +33°C° 0 mm 1 m/s 718 mmHg 42%
    18:00 +31°C° 0 mm 1 m/s 719 mmHg 49%
    19:00 +28°C° 0 mm 1 m/s 719 mmHg 55%
    20:00 +28°C° 0 mm 1 m/s 719 mmHg 62%
    21:00 +27°C° 0 mm 1 m/s 720 mmHg 68%
    22:00 +26°C° 0 mm 2 m/s 720 mmHg 74%
    23:00 +26°C° 0 mm 2 m/s 720 mmHg 80%

    Après-demain, 16 Décembre, Samedi

    Heure Température Précipitation Vent Pression Humidité
    00:00 +25°C° 0 mm 2 m/s 720 mmHg 85%
    01:00 +25°C° 0 mm 2 m/s 720 mmHg 91%
    02:00 +25°C° 0 mm 2 m/s 720 mmHg 90%
    03:00 +25°C° 0 mm 1 m/s 720 mmHg 90%
    04:00 +25°C° 0 mm 1 m/s 720 mmHg 90%
    05:00 +25°C° 0 mm 1 m/s 720 mmHg 90%
    06:00 +25°C° 0 mm 1 m/s 720 mmHg 90%
    07:00 +25°C° 0 mm 1 m/s 721 mmHg 90%
    08:00 +26°C° 0 mm 1 m/s 721 mmHg 82%
    09:00 +28°C° 0 mm 1 m/s 721 mmHg 74%
    10:00 +30°C° 0 mm 1 m/s 722 mmHg 66%
    11:00 +32°C° 0 mm 1 m/s 721 mmHg 58%
    12:00 +34°C° 0 mm 1 m/s 720 mmHg 50%
    13:00 +35°C° 0 mm 1 m/s 719 mmHg 41%
    14:00 +35°C° 0 mm 1 m/s 719 mmHg 41%
    15:00 +35°C° 0 mm 1 m/s 718 mmHg 40%
    16:00 +35°C° 0 mm 1 m/s 717 mmHg 39%
    17:00 +33°C° 0 mm 1 m/s 718 mmHg 47%
    18:00 +30°C° 0 mm 1 m/s 718 mmHg 55%
    19:00 +28°C° 0 mm 1 m/s 718 mmHg 63%
    20:00 +28°C° 0 mm 2 m/s 719 mmHg 69%
    21:00 +27°C° 0 mm 2 m/s 720 mmHg 75%
    22:00 +26°C° 0 mm 2 m/s 720 mmHg 81%
    23:00 +26°C° 0 mm 2 m/s 720 mmHg 83%

    17 Décembre, Dimanche

    Heure Température Précipitation Vent Pression Humidité
    00:00 +25°C° 0 mm 2 m/s 720 mmHg 86%
    01:00 +25°C° 0 mm 2 m/s 720 mmHg 88%
    02:00 +25°C° 0,1 mm 2 m/s 720 mmHg 89%
    03:00 +25°C° 0,1 mm 2 m/s 720 mmHg 89%
    04:00 +25°C° 0,1 mm 1 m/s 719 mmHg 89%
    05:00 +25°C° 0 mm 1 m/s 720 mmHg 90%
    06:00 +25°C° 0 mm 1 m/s 720 mmHg 90%
    07:00 +25°C° 0 mm 1 m/s 720 mmHg 90%
    08:00 +26°C° 0 mm 1 m/s 721 mmHg 83%
    09:00 +27°C° 0 mm 1 m/s 721 mmHg 76%
    10:00 +29°C° 0 mm 1 m/s 722 mmHg 69%
    11:00 +31°C° 0 mm 1 m/s 721 mmHg 60%
    12:00 +33°C° 0 mm 1 m/s 720 mmHg 51%
    13:00 +35°C° 0 mm 1 m/s 719 mmHg 41%
    14:00 +34°C° 0 mm 1 m/s 719 mmHg 41%
    15:00 +34°C° 0 mm 1 m/s 718 mmHg 40%
    16:00 +34°C° 0 mm 1 m/s 717 mmHg 40%
    17:00 +32°C° 0 mm 1 m/s 718 mmHg 47%
    18:00 +30°C° 0 mm 1 m/s 718 mmHg 55%
    19:00 +28°C° 0 mm 1 m/s 719 mmHg 63%
    20:00 +27°C° 0 mm 2 m/s 719 mmHg 69%
    21:00 +26°C° 0 mm 2 m/s 720 mmHg 75%
    22:00 +26°C° 0 mm 2 m/s 720 mmHg 81%
    23:00 +25°C° 0 mm 2 m/s 720 mmHg 83%

    18 Décembre, Lundi

    Heure Température Précipitation Vent Pression Humidité
    00:00 +25°C° 0 mm 2 m/s 720 mmHg 86%
    01:00 +25°C° 0 mm 2 m/s 720 mmHg 88%
    02:00 +25°C° 0,1 mm 2 m/s 720 mmHg 88%
    03:00 +25°C° 0,1 mm 2 m/s 720 mmHg 89%
    04:00 +25°C° 0,1 mm 1 m/s 720 mmHg 89%
    05:00 +25°C° 0 mm 1 m/s 720 mmHg 89%
    06:00 +25°C° 0 mm 1 m/s 721 mmHg 90%
    07:00 +25°C° 0 mm 1 m/s 721 mmHg 90%
    08:00 +26°C° 0 mm 1 m/s 721 mmHg 83%
    09:00 +27°C° 0 mm 1 m/s 721 mmHg 75%
    10:00 +29°C° 0 mm 1 m/s 721 mmHg 68%
    11:00 +30°C° 0 mm 1 m/s 721 mmHg 60%
    12:00 +32°C° 0 mm 1 m/s 720 mmHg 52%
    13:00 +34°C° 0 mm 1 m/s 719 mmHg 44%
    14:00 +34°C° 0 mm 1 m/s 719 mmHg 43%
    15:00 +34°C° 0 mm 1 m/s 718 mmHg 42%
    16:00 +34°C° 0 mm 1 m/s 717 mmHg 41%
    17:00 +32°C° 0 mm 1 m/s 718 mmHg 49%
    18:00 +30°C° 0 mm 1 m/s 718 mmHg 56%
    19:00 +28°C° 0 mm 1 m/s 719 mmHg 63%
    20:00 +27°C° 0 mm 2 m/s 719 mmHg 69%
    21:00 +26°C° 0 mm 2 m/s 719 mmHg 76%
    22:00 +26°C° 0 mm 2 m/s 720 mmHg 82%
    23:00 +25°C° 0 mm 2 m/s 720 mmHg 84%

    19 Décembre, Mardi

    Heure Température Précipitation Vent Pression Humidité
    00:00 +25°C° 0 mm 2 m/s 720 mmHg 86%
    01:00 +25°C° 0 mm 2 m/s 720 mmHg 88%
    02:00 +25°C° 0 mm 2 m/s 720 mmHg 89%
    03:00 +25°C° 0 mm 1 m/s 720 mmHg 90%
    04:00 +25°C° 0 mm 1 m/s 720 mmHg 90%
    05:00 +24°C° 0 mm 1 m/s 720 mmHg 90%
    06:00 +24°C° 0 mm 1 m/s 720 mmHg 91%
    07:00 +24°C° 0 mm 1 m/s 721 mmHg 91%
    08:00 +26°C° 0 mm 1 m/s 721 mmHg 84%
    09:00 +27°C° 0 mm 1 m/s 721 mmHg 77%
    10:00 +29°C° 0 mm 2 m/s 721 mmHg 70%
    11:00 +30°C° 0 mm 2 m/s 720 mmHg 62%
    12:00 +32°C° 0 mm 2 m/s 720 mmHg 55%
    13:00 +34°C° 0 mm 2 m/s 719 mmHg 47%
    14:00 +34°C° 0 mm 1 m/s 719 mmHg 45%
    15:00 +34°C° 0 mm 1 m/s 718 mmHg 43%
    16:00 +34°C° 0 mm 1 m/s 718 mmHg 42%
    17:00 +32°C° 0 mm 1 m/s 718 mmHg 49%
    18:00 +30°C° 0 mm 1 m/s 718 mmHg 56%
    19:00 +28°C° 0 mm 1 m/s 719 mmHg 63%
    20:00 +27°C° 0 mm 2 m/s 719 mmHg 70%
    21:00 +26°C° 0 mm 2 m/s 719 mmHg 76%
    22:00 +26°C° 0 mm 2 m/s 720 mmHg 82%
    23:00 +25°C° 0 mm 2 m/s 720 mmHg 84%
    Voir plus